• In Kazakhstan
  • List of Countries
  • For 7 days
  • Water Temperature
  • Satellite Maps
  • Weather Map
  • News
  • Weather Widgets
  • user-avatar
    Login

    Hourly Weather La Rioja

    Today, 23 March, Saturday

    Time Temperature Precipitation Wind Pressure Humidity
    00:00 +21°C° 0 mm 1 mps 716 mmHg 63%
    01:00 +21°C° 0 mm 1 mps 716 mmHg 66%
    02:00 +20°C° 0 mm 1 mps 716 mmHg 68%
    03:00 +20°C° 0 mm 1 mps 715 mmHg 70%
    04:00 +20°C° 0 mm 1 mps 715 mmHg 72%
    05:00 +19°C° 0 mm 1 mps 715 mmHg 74%
    06:00 +21°C° 0 mm 1 mps 715 mmHg 70%
    07:00 +22°C° 0 mm 1 mps 715 mmHg 65%
    08:00 +23°C° 0 mm 1 mps 715 mmHg 60%
    09:00 +25°C° 0 mm 1 mps 715 mmHg 54%
    10:00 +27°C° 0 mm 2 mps 715 mmHg 49%
    11:00 +29°C° 0 mm 2 mps 715 mmHg 43%
    12:00 +30°C° 0 mm 3 mps 714 mmHg 41%
    13:00 +31°C° 0 mm 3 mps 713 mmHg 38%
    14:00 +33°C° 0 mm 3 mps 712 mmHg 36%
    15:00 +33°C° 0 mm 3 mps 712 mmHg 36%
    16:00 +32°C° 0 mm 2 mps 712 mmHg 35%
    17:00 +32°C° 0 mm 2 mps 711 mmHg 35%
    18:00 +31°C° 0 mm 2 mps 712 mmHg 39%
    19:00 +29°C° 0 mm 2 mps 713 mmHg 43%
    20:00 +27°C° 0 mm 2 mps 713 mmHg 47%
    21:00 +26°C° 0 mm 2 mps 714 mmHg 51%
    22:00 +26°C° 0 mm 2 mps 715 mmHg 54%
    23:00 +25°C° 0 mm 2 mps 715 mmHg 58%

    Tomorrow, 24 March, Sunday

    Time Temperature Precipitation Wind Pressure Humidity
    00:00 +25°C° 0 mm 2 mps 716 mmHg 59%
    01:00 +25°C° 0 mm 2 mps 716 mmHg 61%
    02:00 +24°C° 0 mm 3 mps 716 mmHg 62%
    03:00 +24°C° 0 mm 3 mps 716 mmHg 63%
    04:00 +24°C° 0 mm 3 mps 716 mmHg 64%
    05:00 +22°C° 0 mm 3 mps 717 mmHg 66%
    06:00 +24°C° 0 mm 3 mps 717 mmHg 62%
    07:00 +25°C° 0 mm 3 mps 718 mmHg 59%
    08:00 +25°C° 0 mm 3 mps 719 mmHg 56%
    09:00 +27°C° 0.1 mm 3 mps 719 mmHg 52%
    10:00 +28°C° 0.1 mm 3 mps 719 mmHg 49%
    11:00 +30°C° 0.1 mm 4 mps 719 mmHg 45%
    12:00 +30°C° 0.4 mm 4 mps 719 mmHg 44%
    13:00 +31°C° 0.4 mm 3 mps 718 mmHg 42%
    14:00 +31°C° 0.4 mm 3 mps 717 mmHg 41%
    15:00 +31°C° 0.1 mm 3 mps 717 mmHg 41%
    16:00 +31°C° 0.1 mm 3 mps 716 mmHg 41%
    17:00 +31°C° 0.1 mm 3 mps 715 mmHg 41%
    18:00 +30°C° 0 mm 2 mps 716 mmHg 46%
    19:00 +28°C° 0 mm 2 mps 716 mmHg 52%
    20:00 +26°C° 0 mm 1 mps 716 mmHg 57%
    21:00 +26°C° 0.2 mm 1 mps 717 mmHg 59%
    22:00 +26°C° 0.2 mm 1 mps 717 mmHg 60%
    23:00 +25°C° 0.2 mm 2 mps 717 mmHg 62%

    Day after tomorrow, 25 March, Monday

    Time Temperature Precipitation Wind Pressure Humidity
    00:00 +25°C° 0.1 mm 2 mps 717 mmHg 65%
    01:00 +24°C° 0.1 mm 1 mps 717 mmHg 67%
    02:00 +23°C° 0.1 mm 1 mps 716 mmHg 70%
    03:00 +23°C° 0 mm 1 mps 716 mmHg 71%
    04:00 +22°C° 0 mm 1 mps 716 mmHg 72%
    05:00 +22°C° 0 mm 1 mps 715 mmHg 74%
    06:00 +22°C° 0 mm 1 mps 716 mmHg 69%
    07:00 +23°C° 0 mm 1 mps 716 mmHg 65%
    08:00 +23°C° 0 mm 2 mps 717 mmHg 60%
    09:00 +25°C° 0 mm 2 mps 717 mmHg 56%
    10:00 +26°C° 0 mm 2 mps 717 mmHg 52%
    11:00 +27°C° 0 mm 3 mps 717 mmHg 49%
    12:00 +28°C° 0 mm 3 mps 716 mmHg 46%
    13:00 +29°C° 0 mm 3 mps 715 mmHg 43%
    14:00 +30°C° 0 mm 3 mps 715 mmHg 40%
    15:00 +30°C° 0 mm 3 mps 714 mmHg 39%
    16:00 +31°C° 0 mm 3 mps 714 mmHg 38%
    17:00 +31°C° 0 mm 3 mps 714 mmHg 37%
    18:00 +29°C° 0 mm 3 mps 715 mmHg 43%
    19:00 +28°C° 0 mm 3 mps 715 mmHg 48%
    20:00 +27°C° 0 mm 3 mps 716 mmHg 53%
    21:00 +26°C° 0.2 mm 3 mps 717 mmHg 54%
    22:00 +25°C° 0.2 mm 4 mps 718 mmHg 54%
    23:00 +22°C° 0.2 mm 4 mps 718 mmHg 55%

    26 March, Tuesday

    Time Temperature Precipitation Wind Pressure Humidity
    00:00 +22°C° 0 mm 3 mps 718 mmHg 56%
    01:00 +21°C° 0 mm 3 mps 718 mmHg 58%
    02:00 +20°C° 0 mm 2 mps 718 mmHg 60%
    03:00 +19°C° 0 mm 2 mps 718 mmHg 63%
    04:00 +20°C° 0 mm 1 mps 718 mmHg 65%
    05:00 +19°C° 0 mm 1 mps 718 mmHg 68%
    06:00 +20°C° 0 mm 1 mps 719 mmHg 66%
    07:00 +19°C° 0 mm 2 mps 720 mmHg 64%
    08:00 +20°C° 0 mm 2 mps 720 mmHg 62%
    09:00 +20°C° 0 mm 2 mps 720 mmHg 60%
    10:00 +21°C° 0 mm 2 mps 720 mmHg 58%
    11:00 +23°C° 0 mm 2 mps 721 mmHg 56%
    12:00 +24°C° 0 mm 3 mps 720 mmHg 53%
    13:00 +25°C° 0 mm 3 mps 719 mmHg 49%
    14:00 +26°C° 0 mm 4 mps 719 mmHg 46%
    15:00 +26°C° 0 mm 4 mps 719 mmHg 47%
    16:00 +26°C° 0 mm 5 mps 718 mmHg 47%
    17:00 +25°C° 0 mm 5 mps 718 mmHg 48%
    18:00 +23°C° 0 mm 4 mps 719 mmHg 53%
    19:00 +21°C° 0 mm 4 mps 720 mmHg 58%
    20:00 +20°C° 0 mm 4 mps 721 mmHg 63%
    21:00 +19°C° 0 mm 3 mps 721 mmHg 67%
    22:00 +18°C° 0 mm 2 mps 721 mmHg 71%
    23:00 +18°C° 0 mm 1 mps 722 mmHg 74%

    27 March, Wednesday

    Time Temperature Precipitation Wind Pressure Humidity
    00:00 +18°C° 0 mm 1 mps 722 mmHg 76%
    01:00 +18°C° 0 mm 1 mps 721 mmHg 78%
    02:00 +16°C° 0 mm 1 mps 721 mmHg 80%
    03:00 +16°C° 0 mm 1 mps 721 mmHg 81%
    04:00 +16°C° 0 mm 1 mps 721 mmHg 82%
    05:00 +16°C° 0 mm 1 mps 720 mmHg 83%
    06:00 +16°C° 0 mm 1 mps 721 mmHg 81%
    07:00 +17°C° 0 mm 2 mps 721 mmHg 78%
    08:00 +17°C° 0 mm 2 mps 721 mmHg 75%
    09:00 +18°C° 0 mm 2 mps 721 mmHg 71%
    10:00 +20°C° 0 mm 2 mps 721 mmHg 66%
    11:00 +21°C° 0 mm 3 mps 721 mmHg 61%
    12:00 +22°C° 0 mm 3 mps 720 mmHg 57%
    13:00 +24°C° 0 mm 3 mps 719 mmHg 53%
    14:00 +26°C° 0 mm 3 mps 719 mmHg 48%
    15:00 +26°C° 0 mm 3 mps 718 mmHg 47%
    16:00 +26°C° 0 mm 3 mps 718 mmHg 46%
    17:00 +27°C° 0 mm 4 mps 718 mmHg 44%
    18:00 +25°C° 0 mm 3 mps 718 mmHg 48%
    19:00 +24°C° 0 mm 3 mps 719 mmHg 53%
    20:00 +22°C° 0 mm 3 mps 719 mmHg 57%
    21:00 +21°C° 0 mm 3 mps 720 mmHg 60%
    22:00 +20°C° 0 mm 3 mps 720 mmHg 62%
    23:00 +19°C° 0 mm 2 mps 720 mmHg 65%

    28 March, Thursday

    Time Temperature Precipitation Wind Pressure Humidity
    00:00 +19°C° 0 mm 2 mps 720 mmHg 68%
    01:00 +18°C° 0 mm 2 mps 719 mmHg 70%
    02:00 +18°C° 0 mm 1 mps 719 mmHg 73%
    03:00 +18°C° 0 mm 1 mps 719 mmHg 73%
    04:00 +18°C° 0 mm 1 mps 718 mmHg 74%
    05:00 +18°C° 0 mm 1 mps 718 mmHg 75%
    06:00 +19°C° 0 mm 1 mps 718 mmHg 71%
    07:00 +20°C° 0 mm 1 mps 719 mmHg 68%
    08:00 +20°C° 0 mm 1 mps 719 mmHg 64%
    09:00 +21°C° 0 mm 2 mps 719 mmHg 59%
    10:00 +24°C° 0 mm 2 mps 719 mmHg 54%
    11:00 +26°C° 0 mm 2 mps 718 mmHg 49%
    12:00 +27°C° 0 mm 3 mps 718 mmHg 47%
    13:00 +28°C° 0 mm 3 mps 717 mmHg 44%
    14:00 +29°C° 0 mm 3 mps 716 mmHg 41%
    15:00 +29°C° 0 mm 3 mps 716 mmHg 40%
    16:00 +29°C° 0 mm 2 mps 716 mmHg 40%
    17:00 +29°C° 0 mm 2 mps 715 mmHg 39%
    18:00 +28°C° 0 mm 2 mps 716 mmHg 44%
    19:00 +26°C° 0 mm 2 mps 716 mmHg 49%
    20:00 +24°C° 0 mm 1 mps 717 mmHg 54%
    21:00 +23°C° 0 mm 1 mps 717 mmHg 57%
    22:00 +23°C° 0 mm 1 mps 717 mmHg 61%
    23:00 +20°C° 0 mm 0 mps 717 mmHg 64%
    Show more